Weather in Nizhniye Peny

Russia / Belgorod Oblast     51°00′18″N   35°57′01″E
temp.,
°C
wind,
m/s
gust,
m/s
humid.,
%
clouds,
%
prec.,
mm/h
press.,
hPa
HPBL,
m
20 september, mon
mon2000:00+11sse118936 0.0 100710
03:00+12se2392100 0.4 100767
06:00+12s499492 0.8 1006367
09:00+10sw697426 0.8 1007788
12:00+11ssw5865100 0.0 10091110
15:00+12ssw5764100 0.1 10091121
18:00+11ssw5974100 0.1 1009744
21:00+10sw5987100 0.3 1010635
21 september, tue
tue2100:00+9wsw4789100 0.1 1011687
03:00+9wsw388795 0.1 1011579
06:00+9w3786100 0.0 1012504
09:00+9wsw4679100 0.1 1012680
12:00+9wsw4573100 0.1 1012885
15:00+9w6661100 0.1 1012942
18:00+8wsw4671100 0.0 1013738
21:00+7w4684100 0.1 1013909
22 september, wed
wed2200:00+6wsw4692100 0.5 1013858
03:00+6sw4792100 0.8 1012487
06:00+6wsw4794100 0.3 1012502
09:00+6wsw4694100 0.6 1012462
12:00+7w4589100 0.1 1013609
15:00+7wsw4587100 0.1 1013640
18:00+6wsw3590100 0.0 1014435
21:00+6wsw2491100 0.1 1014357
23 september, thu
thu2300:00+6sw2491100 0.0 1014335
03:00+6ssw2392100 0.0 1014269
06:00+6ssw1392100 0.1 1014237
09:00+6s2389100 0.4 1015243
12:00+7s2387100 0.6 1015500
15:00+7ssw2384100 0.8 1015803
18:00+7s2388100 0.3 1015213
21:00+6s2390100 0.4 1015149
24 september, fri
fri2400:00+7sw118495 0.0 101534
03:00+6ssw1186100 0.0 101518
06:00+6sw118792 0.0 101523
09:00+8sw227591 0.0 1014368
12:00+10sw4561100 0.1 10131327
15:00+11sw5755100 0.3 10121538
18:00+9sw4863100 0.0 1012513
21:00+8ssw51073100 0.3 1012487